When you browse on this site, cookies collect data to enhance your experience and personalize the content and advertising you see.
Visit our Privacy Policy to learn more. By continuing to use the site, you agree to this use of cookies and data.
  • In Latvia
  • List of Countries
  • For 7 days
  • Water Temperature
  • Weather Map
  • Weather Widgets
  • user-avatar
    Login

    Hourly Weather Boma

    Today, 2 June, Tuesday

    Time Temperature Precipitation Wind Pressure Humidity
    00:00 +20°C° 0 mm 0 mps 701 mmHg 98%
    01:00 +20°C° 0 mm 0 mps 701 mmHg 98%
    02:00 +20°C° 0 mm 0 mps 701 mmHg 98%
    03:00 +20°C° 0 mm 0 mps 700 mmHg 97%
    04:00 +21°C° 0 mm 0 mps 700 mmHg 97%
    05:00 +21°C° 0 mm 0 mps 701 mmHg 97%
    06:00 +21°C° 0 mm 0 mps 701 mmHg 97%
    07:00 +21°C° 0 mm 0 mps 702 mmHg 96%
    08:00 +23°C° 0 mm 0 mps 702 mmHg 86%
    09:00 +27°C° 0 mm 1 mps 703 mmHg 75%
    10:00 +29°C° 0 mm 1 mps 703 mmHg 65%
    11:00 +30°C° 0 mm 1 mps 702 mmHg 62%
    12:00 +30°C° 0 mm 2 mps 702 mmHg 59%
    13:00 +31°C° 0 mm 2 mps 701 mmHg 56%
    14:00 +31°C° 0 mm 1 mps 701 mmHg 56%
    15:00 +31°C° 0 mm 1 mps 700 mmHg 56%
    16:00 +31°C° 0 mm 1 mps 699 mmHg 56%
    17:00 +29°C° 0.1 mm 1 mps 699 mmHg 65%
    18:00 +27°C° 0.1 mm 1 mps 700 mmHg 75%
    19:00 +25°C° 0.1 mm 1 mps 700 mmHg 84%
    20:00 +24°C° 0.4 mm 1 mps 700 mmHg 88%
    21:00 +24°C° 0.4 mm 1 mps 701 mmHg 92%
    22:00 +23°C° 0.4 mm 1 mps 701 mmHg 96%
    23:00 +21°C° 0.1 mm 0 mps 701 mmHg 97%

    Tomorrow, 3 June, Wednesday

    Time Temperature Precipitation Wind Pressure Humidity
    00:00 +20°C° 0.1 mm 0 mps 701 mmHg 98%
    01:00 +20°C° 0.1 mm 0 mps 701 mmHg 99%
    02:00 +20°C° 0.1 mm 0 mps 700 mmHg 99%
    03:00 +20°C° 0.1 mm 0 mps 700 mmHg 99%
    04:00 +21°C° 0.1 mm 1 mps 700 mmHg 99%
    05:00 +22°C° 0 mm 1 mps 700 mmHg 99%
    06:00 +22°C° 0 mm 1 mps 701 mmHg 99%
    07:00 +22°C° 0 mm 1 mps 701 mmHg 98%
    08:00 +23°C° 0 mm 1 mps 701 mmHg 97%
    09:00 +23°C° 0 mm 1 mps 701 mmHg 95%
    10:00 +24°C° 0 mm 1 mps 701 mmHg 93%
    11:00 +25°C° 0 mm 1 mps 701 mmHg 85%
    12:00 +27°C° 0 mm 1 mps 701 mmHg 77%
    13:00 +28°C° 0 mm 1 mps 701 mmHg 69%
    14:00 +29°C° 0.1 mm 1 mps 700 mmHg 66%
    15:00 +29°C° 0.1 mm 1 mps 700 mmHg 63%
    16:00 +30°C° 0.1 mm 1 mps 700 mmHg 60%
    17:00 +28°C° 0.2 mm 1 mps 700 mmHg 71%
    18:00 +26°C° 0.2 mm 1 mps 700 mmHg 82%
    19:00 +24°C° 0.2 mm 1 mps 700 mmHg 93%
    20:00 +23°C° 0 mm 1 mps 700 mmHg 94%
    21:00 +23°C° 0 mm 1 mps 701 mmHg 96%
    22:00 +20°C° 0 mm 0 mps 701 mmHg 97%
    23:00 +20°C° 0 mm 0 mps 701 mmHg 97%

    Day after tomorrow, 4 June, Thursday

    Time Temperature Precipitation Wind Pressure Humidity
    00:00 +20°C° 0 mm 0 mps 701 mmHg 97%
    01:00 +20°C° 0 mm 0 mps 701 mmHg 96%
    02:00 +20°C° 0 mm 0 mps 700 mmHg 97%
    03:00 +19°C° 0 mm 0 mps 700 mmHg 98%
    04:00 +19°C° 0 mm 0 mps 700 mmHg 98%
    05:00 +20°C° 0 mm 0 mps 700 mmHg 97%
    06:00 +20°C° 0 mm 0 mps 700 mmHg 95%
    07:00 +20°C° 0 mm 0 mps 701 mmHg 94%
    08:00 +23°C° 0 mm 0 mps 701 mmHg 81%
    09:00 +26°C° 0 mm 0 mps 702 mmHg 68%
    10:00 +31°C° 0 mm 1 mps 702 mmHg 55%
    11:00 +33°C° 0 mm 1 mps 702 mmHg 49%
    12:00 +34°C° 0 mm 1 mps 701 mmHg 43%
    13:00 +36°C° 0 mm 1 mps 701 mmHg 38%
    14:00 +35°C° 0 mm 1 mps 700 mmHg 39%
    15:00 +35°C° 0 mm 1 mps 700 mmHg 40%
    16:00 +34°C° 0 mm 1 mps 699 mmHg 42%
    17:00 +32°C° 0.2 mm 1 mps 699 mmHg 55%
    18:00 +29°C° 0.2 mm 1 mps 699 mmHg 67%
    19:00 +24°C° 0.2 mm 0 mps 700 mmHg 80%
    20:00 +23°C° 0.3 mm 0 mps 700 mmHg 84%
    21:00 +22°C° 0.3 mm 0 mps 700 mmHg 88%
    22:00 +21°C° 0.3 mm 0 mps 700 mmHg 92%
    23:00 +21°C° 0.1 mm 0 mps 700 mmHg 94%

    5 June, Friday

    Time Temperature Precipitation Wind Pressure Humidity
    00:00 +21°C° 0.1 mm 0 mps 700 mmHg 95%
    01:00 +20°C° 0.1 mm 0 mps 701 mmHg 97%
    02:00 +20°C° 0 mm 0 mps 700 mmHg 98%
    03:00 +20°C° 0 mm 0 mps 700 mmHg 98%
    04:00 +20°C° 0 mm 0 mps 700 mmHg 99%
    05:00 +20°C° 0 mm 0 mps 701 mmHg 98%
    06:00 +23°C° 0 mm 1 mps 701 mmHg 97%
    07:00 +23°C° 0 mm 1 mps 702 mmHg 97%
    08:00 +23°C° 0 mm 1 mps 702 mmHg 94%
    09:00 +24°C° 0 mm 1 mps 702 mmHg 91%
    10:00 +25°C° 0 mm 1 mps 703 mmHg 89%
    11:00 +27°C° 0 mm 1 mps 702 mmHg 79%
    12:00 +29°C° 0 mm 1 mps 702 mmHg 69%
    13:00 +31°C° 0 mm 1 mps 701 mmHg 59%
    14:00 +31°C° 0 mm 1 mps 701 mmHg 56%
    15:00 +32°C° 0 mm 1 mps 700 mmHg 54%
    16:00 +32°C° 0 mm 1 mps 700 mmHg 51%
    17:00 +30°C° 0 mm 1 mps 700 mmHg 61%
    18:00 +28°C° 0 mm 1 mps 700 mmHg 70%
    19:00 +24°C° 0 mm 0 mps 700 mmHg 79%
    20:00 +23°C° 0.2 mm 0 mps 701 mmHg 84%
    21:00 +22°C° 0.2 mm 0 mps 701 mmHg 89%
    22:00 +21°C° 0.2 mm 0 mps 701 mmHg 94%
    23:00 +21°C° 0.6 mm 0 mps 701 mmHg 95%

    6 June, Saturday

    Time Temperature Precipitation Wind Pressure Humidity
    00:00 +21°C° 0.6 mm 0 mps 701 mmHg 97%
    01:00 +20°C° 0.6 mm 0 mps 701 mmHg 98%
    02:00 +20°C° 0.2 mm 0 mps 701 mmHg 98%
    03:00 +20°C° 0.2 mm 0 mps 701 mmHg 99%
    04:00 +20°C° 0.2 mm 0 mps 701 mmHg 99%
    05:00 +20°C° 0.5 mm 0 mps 701 mmHg 99%
    06:00 +20°C° 0.5 mm 0 mps 702 mmHg 98%
    07:00 +21°C° 0.5 mm 0 mps 702 mmHg 98%
    08:00 +23°C° 0 mm 0 mps 703 mmHg 88%
    09:00 +25°C° 0 mm 0 mps 703 mmHg 77%
    10:00 +30°C° 0 mm 1 mps 703 mmHg 67%
    11:00 +31°C° 0 mm 1 mps 703 mmHg 58%
    12:00 +33°C° 0 mm 1 mps 702 mmHg 50%
    13:00 +34°C° 0 mm 1 mps 702 mmHg 42%
    14:00 +34°C° 0 mm 1 mps 701 mmHg 42%
    15:00 +34°C° 0 mm 1 mps 701 mmHg 42%
    16:00 +34°C° 0 mm 1 mps 700 mmHg 42%
    17:00 +31°C° 0.1 mm 1 mps 700 mmHg 53%
    18:00 +29°C° 0.1 mm 1 mps 700 mmHg 64%
    19:00 +24°C° 0.1 mm 0 mps 700 mmHg 75%
    20:00 +23°C° 0.4 mm 0 mps 700 mmHg 82%
    21:00 +22°C° 0.4 mm 0 mps 700 mmHg 88%
    22:00 +21°C° 0.4 mm 0 mps 700 mmHg 94%
    23:00 +21°C° 0.1 mm 0 mps 700 mmHg 94%

    7 June, Sunday

    Time Temperature Precipitation Wind Pressure Humidity
    00:00 +21°C° 0.1 mm 0 mps 700 mmHg 95%
    01:00 +20°C° 0.1 mm 0 mps 700 mmHg 96%
    02:00 +20°C° 0.2 mm 0 mps 700 mmHg 97%
    03:00 +20°C° 0.2 mm 0 mps 700 mmHg 98%
    04:00 +20°C° 0.2 mm 0 mps 700 mmHg 99%
    05:00 +20°C° 0.7 mm 0 mps 700 mmHg 99%
    06:00 +20°C° 0.7 mm 0 mps 701 mmHg 98%
    07:00 +21°C° 0.7 mm 0 mps 701 mmHg 98%
    08:00 +24°C° 0 mm 1 mps 701 mmHg 94%
    09:00 +25°C° 0 mm 1 mps 701 mmHg 91%
    10:00 +26°C° 0 mm 1 mps 702 mmHg 87%
    11:00 +28°C° 0 mm 1 mps 701 mmHg 73%
    12:00 +31°C° 0 mm 1 mps 701 mmHg 60%
    13:00 +34°C° 0 mm 1 mps 701 mmHg 47%
    14:00 +34°C° 0 mm 1 mps 700 mmHg 46%
    15:00 +34°C° 0 mm 1 mps 700 mmHg 45%
    16:00 +34°C° 0 mm 1 mps 699 mmHg 44%
    17:00 +31°C° 0.1 mm 1 mps 699 mmHg 55%
    18:00 +29°C° 0.1 mm 1 mps 699 mmHg 65%
    19:00 +24°C° 0.1 mm 0 mps 699 mmHg 76%
    20:00 +23°C° 1.8 mm 0 mps 699 mmHg 83%
    21:00 +22°C° 1.8 mm 0 mps 700 mmHg 91%
    22:00 +21°C° 1.8 mm 0 mps 700 mmHg 98%
    23:00 +21°C° 0.4 mm 0 mps 699 mmHg 98%
    Show more